date,time,SUV Intensity [MED/Hr],UV Index,Daily total [MED],Since Last [MED]
12/05/2022,00:07:58,0.000,0.0,0.0,0.0
12/05/2022,00:08:58,0.000,0.0,0.0,0.0
12/05/2022,00:09:58,0.000,0.0,0.0,0.0
12/05/2022,00:10:58,-0.001,0.0,0.0,0.0
12/05/2022,00:11:58,0.000,0.0,0.0,0.0
12/05/2022,00:12:58,0.001,0.0,0.0,0.0
12/05/2022,00:14:06,0.000,0.0,0.0,0.0
12/05/2022,00:15:58,0.000,0.0,0.0,0.0
12/05/2022,00:16:58,-0.000,0.0,0.0,0.0
12/05/2022,00:17:58,0.000,0.0,0.0,0.0
12/05/2022,00:19:00,-0.000,0.0,0.0,0.0
12/05/2022,00:19:58,0.001,0.0,0.0,0.0
12/05/2022,00:20:58,-0.001,0.0,0.0,0.0
12/05/2022,00:21:58,0.000,0.0,0.0,0.0
12/05/2022,00:22:58,0.000,0.0,0.0,0.0
12/05/2022,00:24:07,-0.001,0.0,0.0,0.0
12/05/2022,00:26:01,0.000,0.0,0.0,0.0
12/05/2022,00:26:58,0.001,0.0,0.0,0.0
12/05/2022,00:27:58,-0.000,0.0,0.0,0.0
12/05/2022,00:28:58,0.000,0.0,0.0,0.0
12/05/2022,00:29:58,0.001,0.0,0.0,0.0
12/05/2022,00:30:57,0.000,0.0,0.0,0.0
12/05/2022,00:31:58,0.000,0.0,0.0,0.0
12/05/2022,00:32:58,-0.000,0.0,0.0,0.0
12/05/2022,00:33:57,-0.001,0.0,0.0,0.0
12/05/2022,00:34:58,-0.001,0.0,0.0,0.0
12/05/2022,00:35:58,0.000,0.0,0.0,0.0
12/05/2022,00:37:06,0.001,0.0,0.0,0.0
12/05/2022,00:38:58,0.000,0.0,0.0,0.0
12/05/2022,00:40:06,-0.001,0.0,0.0,0.0
12/05/2022,00:41:58,0.000,0.0,0.0,0.0
12/05/2022,00:42:58,0.001,0.0,0.0,0.0
12/05/2022,00:43:57,0.000,0.0,0.0,0.0
12/05/2022,00:44:57,0.001,0.0,0.0,0.0
12/05/2022,00:45:58,0.000,0.0,0.0,0.0
12/05/2022,00:46:58,0.001,0.0,0.0,0.0
12/05/2022,00:48:06,0.000,0.0,0.0,0.0
12/05/2022,00:49:59,0.000,0.0,0.0,0.0
12/05/2022,00:50:58,0.000,0.0,0.0,0.0
12/05/2022,00:51:58,0.000,0.0,0.0,0.0
12/05/2022,00:52:58,0.000,0.0,0.0,0.0
12/05/2022,00:53:58,-0.001,0.0,0.0,0.0
12/05/2022,00:54:58,0.000,0.0,0.0,0.0
12/05/2022,00:55:58,0.000,0.0,0.0,0.0
12/05/2022,00:56:58,0.001,0.0,0.0,0.0
12/05/2022,00:58:06,-0.001,0.0,0.0,0.0
12/05/2022,00:59:58,0.001,0.0,0.0,0.0
12/05/2022,01:00:58,0.000,0.0,0.0,0.0
12/05/2022,01:01:57,0.000,0.0,0.0,0.0
12/05/2022,01:02:58,0.000,0.0,0.0,0.0
12/05/2022,01:03:58,-0.000,0.0,0.0,0.0
12/05/2022,01:04:58,0.001,0.0,0.0,0.0
12/05/2022,01:05:58,0.000,0.0,0.0,0.0
12/05/2022,01:06:58,0.001,0.0,0.0,0.0
12/05/2022,01:08:06,0.000,0.0,0.0,0.0
12/05/2022,01:09:59,0.001,0.0,0.0,0.0
12/05/2022,01:11:06,0.000,0.0,0.0,0.0
12/05/2022,01:12:59,0.000,0.0,0.0,0.0
12/05/2022,01:13:58,0.000,0.0,0.0,0.0
12/05/2022,01:14:58,-0.001,0.0,0.0,0.0
12/05/2022,01:15:59,0.001,0.0,0.0,0.0
12/05/2022,01:16:58,0.000,0.0,0.0,0.0
12/05/2022,01:17:58,0.000,0.0,0.0,0.0
12/05/2022,01:19:14,-0.000,0.0,0.0,0.0
12/05/2022,01:20:58,0.000,0.0,0.0,0.0
12/05/2022,01:21:58,0.000,0.0,0.0,0.0
12/05/2022,01:22:58,0.000,0.0,0.0,0.0
12/05/2022,01:23:58,0.000,0.0,0.0,0.0
12/05/2022,01:25:00,0.000,0.0,0.0,0.0
12/05/2022,01:25:58,0.001,0.0,0.0,0.0
12/05/2022,01:26:58,0.000,0.0,0.0,0.0
12/05/2022,01:27:58,0.000,0.0,0.0,0.0
12/05/2022,01:28:58,0.000,0.0,0.0,0.0
12/05/2022,01:29:58,0.000,0.0,0.0,0.0
12/05/2022,01:30:58,0.000,0.0,0.0,0.0
12/05/2022,01:31:58,0.000,0.0,0.0,0.0
12/05/2022,01:33:00,0.000,0.0,0.0,0.0
12/05/2022,01:34:07,0.000,0.0,0.0,0.0
12/05/2022,01:36:07,0.000,0.0,0.0,0.0
12/05/2022,01:37:59,0.000,0.0,0.0,0.0
12/05/2022,01:38:58,0.000,0.0,0.0,0.0
12/05/2022,01:39:58,0.000,0.0,0.0,0.0
12/05/2022,01:40:58,0.000,0.0,0.0,0.0
12/05/2022,01:42:07,0.000,0.0,0.0,0.0
12/05/2022,01:43:59,-0.000,0.0,0.0,0.0
12/05/2022,01:44:58,-0.001,0.0,0.0,0.0
12/05/2022,01:45:58,0.000,0.0,0.0,0.0
12/05/2022,01:46:58,-0.001,0.0,0.0,0.0
12/05/2022,01:48:07,0.001,0.0,0.0,0.0
12/05/2022,01:50:00,0.000,0.0,0.0,0.0
12/05/2022,01:50:58,0.000,0.0,0.0,0.0
12/05/2022,01:51:58,0.000,0.0,0.0,0.0
12/05/2022,01:52:58,0.000,0.0,0.0,0.0
12/05/2022,01:53:58,0.001,0.0,0.0,0.0
12/05/2022,01:55:06,-0.001,0.0,0.0,0.0
12/05/2022,01:56:59,0.000,0.0,0.0,0.0
12/05/2022,01:58:06,0.001,0.0,0.0,0.0
12/05/2022,01:59:59,0.000,0.0,0.0,0.0
12/05/2022,02:00:58,-0.000,0.0,0.0,0.0
12/05/2022,02:01:58,0.000,0.0,0.0,0.0
12/05/2022,02:02:58,0.000,0.0,0.0,0.0
12/05/2022,02:03:58,0.001,0.0,0.0,0.0
12/05/2022,02:04:58,0.000,0.0,0.0,0.0
12/05/2022,02:05:58,0.001,0.0,0.0,0.0
12/05/2022,02:06:58,0.000,0.0,0.0,0.0
12/05/2022,02:08:06,0.000,0.0,0.0,0.0
12/05/2022,02:09:59,0.000,0.0,0.0,0.0
12/05/2022,02:10:58,0.000,0.0,0.0,0.0
12/05/2022,02:11:58,0.001,0.0,0.0,0.0
12/05/2022,02:12:58,0.000,0.0,0.0,0.0
12/05/2022,02:13:58,0.000,0.0,0.0,0.0
12/05/2022,02:14:58,0.000,0.0,0.0,0.0
12/05/2022,02:15:58,0.000,0.0,0.0,0.0
12/05/2022,02:16:58,0.000,0.0,0.0,0.0
12/05/2022,02:18:06,0.000,0.0,0.0,0.0
12/05/2022,02:20:07,0.000,0.0,0.0,0.0
12/05/2022,02:21:59,0.000,0.0,0.0,0.0
12/05/2022,02:22:58,-0.001,0.0,0.0,0.0
12/05/2022,02:23:58,0.000,0.0,0.0,0.0
12/05/2022,02:24:58,-0.001,0.0,0.0,0.0
12/05/2022,02:25:59,0.000,0.0,0.0,0.0
12/05/2022,02:26:58,0.000,0.0,0.0,0.0
12/05/2022,02:27:58,0.000,0.0,0.0,0.0
12/05/2022,02:28:58,0.001,0.0,0.0,0.0
12/05/2022,02:29:58,0.000,0.0,0.0,0.0
12/05/2022,02:30:58,0.000,0.0,0.0,0.0
12/05/2022,02:31:58,0.001,0.0,0.0,0.0
12/05/2022,02:32:58,-0.000,0.0,0.0,0.0
12/05/2022,02:33:58,-0.000,0.0,0.0,0.0
12/05/2022,02:34:58,0.000,0.0,0.0,0.0
12/05/2022,02:35:59,0.000,0.0,0.0,0.0
12/05/2022,02:36:58,0.000,0.0,0.0,0.0
12/05/2022,02:37:59,-0.001,0.0,0.0,0.0
12/05/2022,02:38:59,-0.000,0.0,0.0,0.0
12/05/2022,02:39:58,0.000,0.0,0.0,0.0
12/05/2022,02:40:58,-0.000,0.0,0.0,0.0
12/05/2022,02:41:58,0.000,0.0,0.0,0.0
12/05/2022,02:42:59,0.000,0.0,0.0,0.0
12/05/2022,02:43:58,0.001,0.0,0.0,0.0
12/05/2022,02:44:58,0.001,0.0,0.0,0.0
12/05/2022,02:46:06,0.000,0.0,0.0,0.0
12/05/2022,02:47:59,-0.001,0.0,0.0,0.0
12/05/2022,02:48:58,0.000,0.0,0.0,0.0
12/05/2022,02:49:58,-0.001,0.0,0.0,0.0
12/05/2022,02:50:58,-0.000,0.0,0.0,0.0
12/05/2022,02:51:58,-0.000,0.0,0.0,0.0
12/05/2022,02:52:58,0.000,0.0,0.0,0.0
12/05/2022,02:53:58,-0.000,0.0,0.0,0.0
12/05/2022,02:54:59,-0.000,0.0,0.0,0.0
12/05/2022,02:55:58,-0.000,0.0,0.0,0.0
12/05/2022,02:56:58,-0.001,0.0,0.0,0.0
12/05/2022,02:57:59,0.000,0.0,0.0,0.0
12/05/2022,02:59:07,0.000,0.0,0.0,0.0
12/05/2022,03:00:58,0.000,0.0,0.0,0.0
12/05/2022,03:02:07,0.000,0.0,0.0,0.0
12/05/2022,03:03:59,-0.001,0.0,0.0,0.0
12/05/2022,03:04:58,-0.000,0.0,0.0,0.0
12/05/2022,03:05:58,-0.000,0.0,0.0,0.0
12/05/2022,03:06:58,-0.000,0.0,0.0,0.0
12/05/2022,03:07:58,0.000,0.0,0.0,0.0
12/05/2022,03:08:58,0.000,0.0,0.0,0.0
12/05/2022,03:10:06,0.000,0.0,0.0,0.0
12/05/2022,03:11:58,-0.001,0.0,0.0,0.0
12/05/2022,03:12:58,0.000,0.0,0.0,0.0
12/05/2022,03:13:58,-0.000,0.0,0.0,0.0
12/05/2022,03:14:58,0.000,0.0,0.0,0.0
12/05/2022,03:15:58,0.000,0.0,0.0,0.0
12/05/2022,03:16:58,0.001,0.0,0.0,0.0
12/05/2022,03:17:59,0.000,0.0,0.0,0.0
12/05/2022,03:18:59,-0.000,0.0,0.0,0.0
12/05/2022,03:19:59,0.000,0.0,0.0,0.0
12/05/2022,03:20:58,0.000,0.0,0.0,0.0
12/05/2022,03:21:58,0.001,0.0,0.0,0.0
12/05/2022,03:22:58,0.000,0.0,0.0,0.0
12/05/2022,03:23:59,0.000,0.0,0.0,0.0
12/05/2022,03:24:59,0.000,0.0,0.0,0.0
12/05/2022,03:25:58,-0.000,0.0,0.0,0.0
12/05/2022,03:26:59,0.000,0.0,0.0,0.0
12/05/2022,03:27:58,-0.000,0.0,0.0,0.0
12/05/2022,03:28:58,0.001,0.0,0.0,0.0
12/05/2022,03:30:07,-0.001,0.0,0.0,0.0
12/05/2022,03:31:59,0.001,0.0,0.0,0.0
12/05/2022,03:33:07,-0.000,0.0,0.0,0.0
12/05/2022,03:34:59,0.000,0.0,0.0,0.0
12/05/2022,03:35:59,0.000,0.0,0.0,0.0
12/05/2022,03:36:58,0.001,0.0,0.0,0.0
12/05/2022,03:37:58,0.000,0.0,0.0,0.0
12/05/2022,03:38:59,0.000,0.0,0.0,0.0
12/05/2022,03:39:58,0.000,0.0,0.0,0.0
12/05/2022,03:40:58,0.001,0.0,0.0,0.0
12/05/2022,03:41:58,-0.000,0.0,0.0,0.0
12/05/2022,03:43:06,0.000,0.0,0.0,0.0
12/05/2022,03:45:07,0.000,0.0,0.0,0.0
12/05/2022,03:46:59,0.000,0.0,0.0,0.0
12/05/2022,03:47:58,0.000,0.0,0.0,0.0
12/05/2022,03:49:00,0.000,0.0,0.0,0.0
12/05/2022,03:49:58,0.000,0.0,0.0,0.0
12/05/2022,03:51:06,-0.000,0.0,0.0,0.0
12/05/2022,03:52:59,0.001,0.0,0.0,0.0
12/05/2022,03:54:07,-0.000,0.0,0.0,0.0
12/05/2022,03:55:59,0.001,0.0,0.0,0.0
12/05/2022,03:56:59,0.000,0.0,0.0,0.0
12/05/2022,03:58:00,0.000,0.0,0.0,0.0
12/05/2022,03:58:58,0.000,0.0,0.0,0.0
12/05/2022,03:59:59,-0.000,0.0,0.0,0.0
12/05/2022,04:01:06,-0.001,0.0,0.0,0.0
12/05/2022,04:02:59,0.000,0.0,0.0,0.0
12/05/2022,04:04:07,0.000,0.0,0.0,0.0
12/05/2022,04:05:59,0.001,0.0,0.0,0.0
12/05/2022,04:06:58,0.000,0.0,0.0,0.0
12/05/2022,04:07:58,-0.000,0.0,0.0,0.0
12/05/2022,04:08:59,0.000,0.0,0.0,0.0
12/05/2022,04:09:59,0.000,0.0,0.0,0.0
12/05/2022,04:10:59,0.001,0.0,0.0,0.0
12/05/2022,04:11:58,0.001,0.0,0.0,0.0
12/05/2022,04:12:59,0.001,0.0,0.0,0.0
12/05/2022,04:14:06,0.001,0.0,0.0,0.0
12/05/2022,04:15:59,0.001,0.0,0.0,0.0
12/05/2022,04:16:58,0.001,0.0,0.0,0.0
12/05/2022,04:17:58,0.001,0.0,0.0,0.0
12/05/2022,04:18:58,0.001,0.0,0.0,0.0
12/05/2022,04:19:59,0.001,0.0,0.0,0.0
12/05/2022,04:20:58,0.001,0.0,0.0,0.0
12/05/2022,04:21:58,0.002,0.0,0.0,0.0
12/05/2022,04:22:58,0.002,0.0,0.0,0.0
12/05/2022,04:23:59,0.001,0.0,0.0,0.0
12/05/2022,04:24:58,0.002,0.0,0.0,0.0
12/05/2022,04:25:58,0.002,0.0,0.0,0.0
12/05/2022,04:26:58,0.002,0.0,0.0,0.0
12/05/2022,04:27:58,0.002,0.0,0.0,0.0
12/05/2022,04:28:58,0.002,0.0,0.0,0.0
12/05/2022,04:29:59,0.002,0.0,0.0,0.0
12/05/2022,04:30:58,0.003,0.0,0.0,0.0
12/05/2022,04:32:06,0.004,0.0,0.0,0.0
12/05/2022,04:33:58,0.003,0.0,0.0,0.0
12/05/2022,04:34:58,0.004,0.0,0.0,0.0
12/05/2022,04:35:59,0.004,0.0,0.0,0.0
12/05/2022,04:36:58,0.004,0.0,0.0,0.0
12/05/2022,04:38:06,0.004,0.0,0.0,0.0
12/05/2022,04:40:00,0.005,0.0,0.0,0.0
12/05/2022,04:40:59,0.005,0.0,0.0,0.0
12/05/2022,04:41:58,0.005,0.0,0.0,0.0
12/05/2022,04:42:58,0.005,0.0,0.0,0.0
12/05/2022,04:43:58,0.006,0.0,0.0,0.0
12/05/2022,04:44:58,0.006,0.0,0.0,0.0
12/05/2022,04:45:59,0.006,0.0,0.0,0.0
12/05/2022,04:46:59,0.006,0.0,0.0,0.0
12/05/2022,04:47:59,0.007,0.0,0.0,0.0
12/05/2022,04:48:59,0.008,0.0,0.0,0.0
12/05/2022,04:49:59,0.007,0.0,0.001,0.001
12/05/2022,04:50:59,0.007,0.0,0.001,0.0
12/05/2022,04:51:58,0.007,0.0,0.001,0.0
12/05/2022,04:52:58,0.008,0.0,0.001,0.0
12/05/2022,04:53:58,0.009,0.0,0.001,0.0
12/05/2022,04:55:00,0.010,0.0,0.001,0.0
12/05/2022,04:56:12,0.010,0.0,0.001,0.0
12/05/2022,04:57:59,0.012,0.0,0.002,0.001
12/05/2022,04:58:58,0.010,0.0,0.002,0.0
12/05/2022,04:59:58,0.011,0.0,0.002,0.0
12/05/2022,05:00:59,0.011,0.0,0.002,0.0
12/05/2022,05:01:59,0.012,0.0,0.003,0.001
12/05/2022,05:02:59,0.013,0.0,0.003,0.0
12/05/2022,05:03:58,0.013,0.0,0.003,0.0
12/05/2022,05:04:58,0.014,0.0,0.003,0.0
12/05/2022,05:06:06,0.014,0.0,0.003,0.0
12/05/2022,05:07:59,0.015,0.0,0.004,0.001
12/05/2022,05:08:59,0.016,0.0,0.004,0.0
12/05/2022,05:09:59,0.017,0.0,0.004,0.0
12/05/2022,05:10:58,0.017,0.0,0.005,0.001
12/05/2022,05:11:58,0.018,0.0,0.005,0.0
12/05/2022,05:12:58,0.019,0.0,0.005,0.0
12/05/2022,05:13:59,0.020,0.0,0.006,0.001
12/05/2022,05:14:58,0.019,0.0,0.006,0.0
12/05/2022,05:15:58,0.021,0.0,0.006,0.0
12/05/2022,05:16:59,0.020,0.0,0.007,0.001
12/05/2022,05:17:59,0.021,0.0,0.007,0.0
12/05/2022,05:19:08,0.022,0.0,0.007,0.0
12/05/2022,05:20:59,0.023,0.0,0.008,0.001
12/05/2022,05:21:59,0.024,0.0,0.008,0.0
12/05/2022,05:22:58,0.025,0.0,0.009,0.001
12/05/2022,05:23:58,0.026,0.0,0.009,0.0
12/05/2022,05:24:58,0.026,0.0,0.01,0.001
12/05/2022,05:25:59,0.028,0.0,0.01,0.0
12/05/2022,05:27:07,0.028,0.0,0.011,0.001
12/05/2022,05:28:59,0.030,0.0,0.012,0.001
12/05/2022,05:29:58,0.030,0.0,0.012,0.0
12/05/2022,05:30:58,0.031,0.0,0.013,0.001
12/05/2022,05:31:59,0.034,0.0,0.013,0.0
12/05/2022,05:32:58,0.033,0.0,0.014,0.001
12/05/2022,05:33:58,0.035,0.0,0.014,0.0
12/05/2022,05:34:58,0.036,0.0,0.015,0.001
12/05/2022,05:35:58,0.037,0.0,0.015,0.0
12/05/2022,05:37:07,0.039,0.0,0.016,0.001
12/05/2022,05:39:06,0.041,0.0,0.017,0.001
12/05/2022,05:40:06,0.040,0.0,0.018,0.001
12/05/2022,05:41:59,0.043,0.0,0.019,0.001
12/05/2022,05:42:59,0.044,0.0,0.02,0.001
12/05/2022,05:43:59,0.045,0.0,0.021,0.001
12/05/2022,05:44:58,0.046,0.0,0.022,0.001
12/05/2022,05:45:59,0.047,0.0,0.022,0.0
12/05/2022,05:46:58,0.049,0.0,0.023,0.001
12/05/2022,05:47:58,0.050,0.0,0.024,0.001
12/05/2022,05:48:58,0.051,0.0,0.025,0.001
12/05/2022,05:50:07,0.054,0.0,0.026,0.001
12/05/2022,05:51:59,0.055,0.0,0.028,0.002
12/05/2022,05:52:59,0.056,0.0,0.029,0.001
12/05/2022,05:53:59,0.058,0.0,0.029,0.0
12/05/2022,05:54:58,0.059,0.0,0.03,0.001
12/05/2022,05:55:58,0.060,0.0,0.031,0.001
12/05/2022,05:56:59,0.062,0.0,0.032,0.001
12/05/2022,05:57:49,0.063,0.0,0.033,0.001
12/05/2022,05:58:59,0.064,0.0,0.035,0.002
12/05/2022,05:59:59,0.066,0.0,0.036,0.001
12/05/2022,06:00:58,0.067,0.0,0.037,0.001
12/05/2022,06:01:58,0.069,0.0,0.038,0.001
12/05/2022,06:02:58,0.071,0.0,0.039,0.001
12/05/2022,06:03:59,0.072,0.0,0.04,0.001
12/05/2022,06:05:00,0.074,0.0,0.042,0.002
12/05/2022,06:05:58,0.075,0.0,0.043,0.001
12/05/2022,06:06:59,0.077,0.0,0.044,0.001
12/05/2022,06:08:07,0.079,0.0,0.045,0.001
12/05/2022,06:09:59,0.084,0.0,0.048,0.003
12/05/2022,06:10:59,0.086,0.0,0.049,0.001
12/05/2022,06:11:59,0.088,0.0,0.051,0.002
12/05/2022,06:12:59,0.089,0.0,0.052,0.001
12/05/2022,06:13:58,0.089,0.0,0.054,0.002
12/05/2022,06:14:58,0.091,0.0,0.055,0.001
12/05/2022,06:15:59,0.093,0.0,0.057,0.002
12/05/2022,06:16:58,0.095,0.0,0.058,0.001
12/05/2022,06:18:14,0.100,0.0,0.061,0.003
12/05/2022,06:20:00,0.104,0.0,0.064,0.003
12/05/2022,06:20:58,0.107,0.0,0.065,0.001
12/05/2022,06:21:58,0.109,0.0,0.067,0.002
12/05/2022,06:22:59,0.110,0.0,0.069,0.002
12/05/2022,06:23:59,0.114,0.0,0.071,0.002
12/05/2022,06:24:59,0.115,0.0,0.073,0.002
12/05/2022,06:25:59,0.119,0.0,0.075,0.002
12/05/2022,06:26:59,0.120,0.0,0.076,0.001
12/05/2022,06:27:58,0.122,0.0,0.079,0.003
12/05/2022,06:28:59,0.125,0.0,0.081,0.002
12/05/2022,06:29:59,0.127,0.0,0.083,0.002
12/05/2022,06:30:58,0.130,0.0,0.085,0.002
12/05/2022,06:32:05,0.132,0.0,0.087,0.002
12/05/2022,06:32:58,0.134,0.0,0.089,0.002
12/05/2022,06:33:59,0.137,0.0,0.091,0.002
12/05/2022,06:34:59,0.140,0.0,0.094,0.003
12/05/2022,06:36:07,0.142,0.0,0.096,0.002
12/05/2022,06:37:59,0.148,0.0,0.101,0.005
12/05/2022,06:38:58,0.151,0.0,0.103,0.002
12/05/2022,06:39:59,0.155,0.0,0.106,0.003
12/05/2022,06:40:59,0.157,0.0,0.109,0.003
12/05/2022,06:42:07,0.161,0.0,0.112,0.003
12/05/2022,06:43:59,0.166,0.0,0.117,0.005
12/05/2022,06:44:59,0.168,0.0,0.119,0.002
12/05/2022,06:45:59,0.172,0.0,0.122,0.003
12/05/2022,06:46:58,0.175,0.0,0.125,0.003
12/05/2022,06:47:58,0.179,0.0,0.128,0.003
12/05/2022,06:48:59,0.182,0.0,0.131,0.003
12/05/2022,06:49:59,0.185,0.0,0.134,0.003
12/05/2022,06:50:59,0.187,0.0,0.137,0.003
12/05/2022,06:52:07,0.192,0.0,0.141,0.004
12/05/2022,06:54:00,0.199,0.0,0.147,0.006
12/05/2022,06:54:59,0.202,0.0,0.15,0.003
12/05/2022,06:55:59,0.206,0.0,0.154,0.004
12/05/2022,06:56:50,0.208,0.0,0.157,0.003
12/05/2022,06:57:59,0.212,0.0,0.161,0.004
12/05/2022,06:58:59,0.217,0.0,0.164,0.003
12/05/2022,06:59:58,0.220,1.0,0.168,0.004
12/05/2022,07:00:59,0.222,1.0,0.172,0.004
12/05/2022,07:01:59,0.226,1.0,0.175,0.003
12/05/2022,07:03:07,0.232,1.0,0.18,0.005
12/05/2022,07:04:59,0.238,1.0,0.187,0.007
12/05/2022,07:06:07,0.234,1.0,0.191,0.004
12/05/2022,07:07:59,0.251,1.0,0.199,0.008
12/05/2022,07:08:58,0.254,1.0,0.203,0.004
12/05/2022,07:10:00,0.257,1.0,0.207,0.004
12/05/2022,07:10:59,0.263,1.0,0.212,0.005
12/05/2022,07:11:58,0.269,1.0,0.216,0.004
12/05/2022,07:12:59,0.273,1.0,0.221,0.005
12/05/2022,07:13:58,0.278,1.0,0.225,0.004
12/05/2022,07:14:59,0.283,1.0,0.23,0.005
12/05/2022,07:16:07,0.288,1.0,0.235,0.005
12/05/2022,07:18:08,0.299,1.0,0.245,0.01
12/05/2022,07:19:57,0.307,1.0,0.254,0.009
12/05/2022,07:21:00,0.313,1.0,0.26,0.006
12/05/2022,07:21:58,0.316,1.0,0.265,0.005
12/05/2022,07:22:58,0.320,1.0,0.27,0.005
12/05/2022,07:24:08,0.324,1.0,0.276,0.006
12/05/2022,07:26:00,0.332,1.0,0.287,0.011
12/05/2022,07:27:07,0.333,1.0,0.293,0.006
12/05/2022,07:28:59,0.334,1.0,0.303,0.01
12/05/2022,07:30:00,0.317,1.0,0.309,0.006
12/05/2022,07:30:59,0.311,1.0,0.314,0.005
12/05/2022,07:31:58,0.312,1.0,0.319,0.005
12/05/2022,07:33:15,0.315,1.0,0.325,0.006
12/05/2022,07:34:59,0.312,1.0,0.334,0.009
12/05/2022,07:35:59,0.319,1.0,0.34,0.006
12/05/2022,07:37:07,0.327,1.0,0.346,0.006
12/05/2022,07:38:59,0.350,1.0,0.356,0.01
12/05/2022,07:39:59,0.363,1.0,0.362,0.006
12/05/2022,07:40:59,0.367,1.0,0.368,0.006
12/05/2022,07:41:59,0.382,1.0,0.375,0.007
12/05/2022,07:42:59,0.379,1.0,0.381,0.006
12/05/2022,07:43:59,0.394,1.0,0.387,0.006
12/05/2022,07:44:58,0.412,1.0,0.394,0.007
12/05/2022,07:45:59,0.415,1.0,0.401,0.007
12/05/2022,07:46:59,0.412,1.0,0.408,0.007
12/05/2022,07:47:59,0.425,1.0,0.415,0.007
12/05/2022,07:48:59,0.428,1.0,0.422,0.007
12/05/2022,07:49:58,0.439,1.0,0.429,0.007
12/05/2022,07:50:59,0.447,1.0,0.437,0.008
12/05/2022,07:51:58,0.462,1.0,0.444,0.007
12/05/2022,07:52:59,0.477,1.0,0.452,0.008
12/05/2022,07:53:59,0.480,1.0,0.46,0.008
12/05/2022,07:54:59,0.491,1.0,0.469,0.009
12/05/2022,07:55:58,0.498,1.0,0.476,0.007
12/05/2022,07:56:59,0.507,1.0,0.485,0.009
12/05/2022,07:58:07,0.507,1.0,0.495,0.01
12/05/2022,07:59:59,0.496,1.0,0.51,0.015
12/05/2022,08:00:59,0.509,1.0,0.519,0.009
12/05/2022,08:01:59,0.521,1.0,0.527,0.008
12/05/2022,08:02:59,0.541,1.0,0.536,0.009
12/05/2022,08:03:59,0.555,1.0,0.545,0.009
12/05/2022,08:04:59,0.563,1.0,0.555,0.01
12/05/2022,08:05:59,0.573,1.0,0.564,0.009
12/05/2022,08:06:58,0.581,1.0,0.573,0.009
12/05/2022,08:07:59,0.593,1.0,0.583,0.01
12/05/2022,08:08:59,0.598,1.0,0.593,0.01
12/05/2022,08:09:58,0.606,1.0,0.603,0.01
12/05/2022,08:11:07,0.600,1.0,0.615,0.012
12/05/2022,08:12:59,0.566,1.0,0.633,0.018
12/05/2022,08:13:59,0.623,1.0,0.643,0.01
12/05/2022,08:14:58,0.592,1.0,0.653,0.01
12/05/2022,08:15:58,0.443,1.0,0.661,0.008
12/05/2022,08:16:58,0.605,1.0,0.67,0.009
12/05/2022,08:17:58,0.550,1.0,0.68,0.01
12/05/2022,08:18:59,0.437,1.0,0.687,0.007
12/05/2022,08:19:59,0.525,1.0,0.696,0.009
12/05/2022,08:21:07,0.542,1.0,0.706,0.01
12/05/2022,08:21:58,0.550,1.0,0.714,0.008
12/05/2022,08:22:59,0.475,1.0,0.721,0.007
12/05/2022,08:24:07,0.436,1.0,0.731,0.01
12/05/2022,08:25:59,0.524,1.0,0.746,0.015
12/05/2022,08:26:59,0.565,1.0,0.755,0.009
12/05/2022,08:27:59,0.569,1.0,0.764,0.009
12/05/2022,08:28:59,0.605,1.0,0.774,0.01
12/05/2022,08:29:59,0.698,2.0,0.785,0.011
12/05/2022,08:30:59,0.705,2.0,0.797,0.012
12/05/2022,08:31:59,0.717,2.0,0.809,0.012
12/05/2022,08:32:59,0.697,2.0,0.821,0.012
12/05/2022,08:34:07,0.610,1.0,0.833,0.012
12/05/2022,08:36:08,0.771,2.0,0.855,0.022
12/05/2022,08:38:09,0.790,2.0,0.881,0.026
12/05/2022,08:39:59,0.781,2.0,0.905,0.024
12/05/2022,08:40:59,0.713,2.0,0.916,0.011
12/05/2022,08:41:59,0.779,2.0,0.93,0.014
12/05/2022,08:42:59,0.690,2.0,0.941,0.011
12/05/2022,08:43:59,0.817,2.0,0.955,0.014
12/05/2022,08:44:59,0.576,1.0,0.966,0.011
12/05/2022,08:45:59,0.591,1.0,0.977,0.011
12/05/2022,08:46:59,0.741,2.0,0.988,0.011
12/05/2022,08:47:59,0.780,2.0,1.001,0.013
12/05/2022,08:48:59,0.807,2.0,1.011,0.01
12/05/2022,08:49:58,0.853,2.0,1.025,0.014
12/05/2022,08:50:58,0.872,2.0,1.039,0.014
12/05/2022,08:51:59,0.899,2.0,1.054,0.015
12/05/2022,08:52:58,0.887,2.0,1.068,0.014
12/05/2022,08:53:59,0.897,2.0,1.083,0.015
12/05/2022,08:55:07,0.594,1.0,1.098,0.015
12/05/2022,08:56:59,0.839,2.0,1.12,0.022
12/05/2022,08:57:59,0.573,1.0,1.13,0.01
12/05/2022,08:58:59,0.580,1.0,1.139,0.009
12/05/2022,08:59:59,0.670,2.0,1.15,0.011
12/05/2022,09:00:59,0.572,1.0,1.16,0.01
12/05/2022,09:01:59,0.593,1.0,1.17,0.01
12/05/2022,09:02:59,0.841,2.0,1.182,0.012
12/05/2022,09:03:58,0.925,2.0,1.195,0.013
12/05/2022,09:04:58,0.831,2.0,1.211,0.016
12/05/2022,09:05:59,0.993,2.0,1.227,0.016
12/05/2022,09:06:59,1.026,2.0,1.244,0.017
12/05/2022,09:07:59,1.009,2.0,1.261,0.017
12/05/2022,09:08:59,0.608,1.0,1.275,0.014
12/05/2022,09:09:59,0.585,1.0,1.285,0.01
12/05/2022,09:11:07,0.597,1.0,1.296,0.011
12/05/2022,09:13:00,1.029,2.0,1.322,0.026
12/05/2022,09:13:59,0.653,2.0,1.333,0.011
12/05/2022,09:14:59,1.063,2.0,1.349,0.016
12/05/2022,09:15:58,1.093,3.0,1.367,0.018
12/05/2022,09:16:59,1.094,3.0,1.385,0.018
12/05/2022,09:17:58,0.697,2.0,1.398,0.013
12/05/2022,09:18:58,1.100,3.0,1.411,0.013
12/05/2022,09:19:59,1.091,3.0,1.429,0.018
12/05/2022,09:20:58,0.689,2.0,1.445,0.016
12/05/2022,09:21:59,0.659,2.0,1.457,0.012
12/05/2022,09:22:59,0.687,2.0,1.468,0.011
12/05/2022,09:24:07,1.144,3.0,1.487,0.019
12/05/2022,09:25:59,0.913,2.0,1.52,0.033
12/05/2022,09:26:58,0.705,2.0,1.534,0.014
12/05/2022,09:27:59,0.643,1.0,1.545,0.011
12/05/2022,09:28:59,0.651,1.0,1.556,0.011
12/05/2022,09:29:59,0.678,2.0,1.567,0.011
12/05/2022,09:31:00,1.158,3.0,1.581,0.014
12/05/2022,09:31:59,1.200,3.0,1.6,0.019
12/05/2022,09:32:59,1.198,3.0,1.62,0.02
12/05/2022,09:34:07,1.223,3.0,1.644,0.024
12/05/2022,09:35:59,1.242,3.0,1.676,0.032
12/05/2022,09:37:07,1.270,3.0,1.699,0.023
12/05/2022,09:39:00,1.292,3.0,1.738,0.039
12/05/2022,09:39:59,1.296,3.0,1.759,0.021
12/05/2022,09:40:59,1.314,3.0,1.781,0.022
12/05/2022,09:41:59,1.327,3.0,1.803,0.022
12/05/2022,09:42:59,1.347,3.0,1.826,0.023
12/05/2022,09:43:59,1.334,3.0,1.847,0.021
12/05/2022,09:44:59,1.308,3.0,1.869,0.022
12/05/2022,09:45:59,1.264,3.0,1.892,0.023
12/05/2022,09:47:01,0.706,2.0,1.905,0.013
12/05/2022,09:47:59,0.713,2.0,1.916,0.011
12/05/2022,09:48:59,0.666,2.0,1.928,0.012
12/05/2022,09:50:07,0.663,2.0,1.94,0.012
12/05/2022,09:51:59,1.125,3.0,1.966,0.026
12/05/2022,09:52:59,1.087,2.0,1.986,0.02
12/05/2022,09:53:59,1.150,3.0,2.006,0.02
12/05/2022,09:54:59,0.844,2.0,2.027,0.021
12/05/2022,09:55:58,0.611,1.0,2.041,0.014
12/05/2022,09:56:59,0.585,1.0,2.051,0.01
12/05/2022,09:57:59,0.613,1.0,2.061,0.01
12/05/2022,09:58:59,0.660,2.0,2.072,0.011
12/05/2022,09:59:59,0.966,2.0,2.084,0.012
12/05/2022,10:00:58,0.830,2.0,2.099,0.015
12/05/2022,10:01:59,0.755,2.0,2.112,0.013
12/05/2022,10:03:08,1.411,3.0,2.129,0.017
12/05/2022,10:04:59,1.426,3.0,2.172,0.043
12/05/2022,10:06:00,0.904,2.0,2.195,0.023
12/05/2022,10:06:59,0.787,2.0,2.209,0.014
12/05/2022,10:07:59,0.772,2.0,2.222,0.013
12/05/2022,10:08:59,0.884,2.0,2.235,0.013
12/05/2022,10:09:59,0.963,2.0,2.249,0.014
12/05/2022,10:10:59,0.755,2.0,2.264,0.015
12/05/2022,10:11:59,0.711,2.0,2.276,0.012
12/05/2022,10:12:59,0.709,2.0,2.288,0.012
12/05/2022,10:13:58,0.745,2.0,2.3,0.012
12/05/2022,10:14:59,0.805,2.0,2.313,0.013
12/05/2022,10:15:59,1.310,3.0,2.329,0.016
12/05/2022,10:17:07,1.557,4.0,2.355,0.026
12/05/2022,10:19:00,1.146,3.0,2.395,0.04
12/05/2022,10:19:59,0.973,2.0,2.412,0.017
12/05/2022,10:20:59,0.976,2.0,2.428,0.016
12/05/2022,10:21:59,1.029,2.0,2.445,0.017
12/05/2022,10:23:15,1.291,3.0,2.469,0.024
12/05/2022,10:24:50,0.901,2.0,2.498,0.029
12/05/2022,10:26:00,0.814,2.0,2.514,0.016
12/05/2022,10:26:59,0.765,2.0,2.527,0.013
12/05/2022,10:27:58,0.755,2.0,2.54,0.013
12/05/2022,10:28:59,0.785,2.0,2.552,0.012
12/05/2022,10:29:59,1.264,3.0,2.569,0.017
12/05/2022,10:30:59,0.791,2.0,2.585,0.016
12/05/2022,10:31:59,0.776,2.0,2.598,0.013
12/05/2022,10:32:59,0.790,2.0,2.611,0.013
12/05/2022,10:33:59,0.823,2.0,2.625,0.014
12/05/2022,10:34:59,0.857,2.0,2.639,0.014
12/05/2022,10:35:59,0.875,2.0,2.653,0.014
12/05/2022,10:36:59,0.908,2.0,2.668,0.015
12/05/2022,10:38:00,0.981,2.0,2.684,0.016
12/05/2022,10:38:59,0.947,2.0,2.7,0.016
12/05/2022,10:39:59,0.868,2.0,2.716,0.016
12/05/2022,10:40:59,0.846,2.0,2.731,0.015
12/05/2022,10:41:59,0.854,2.0,2.745,0.014
12/05/2022,10:42:59,0.879,2.0,2.759,0.014
12/05/2022,10:43:59,0.918,2.0,2.774,0.015
12/05/2022,10:44:59,1.016,2.0,2.79,0.016
12/05/2022,10:45:59,1.706,4.0,2.812,0.022
12/05/2022,10:46:58,1.700,4.0,2.839,0.027
12/05/2022,10:47:59,1.748,4.0,2.869,0.03
12/05/2022,10:48:59,1.521,3.0,2.897,0.028
12/05/2022,10:49:59,1.533,4.0,2.925,0.028
12/05/2022,10:50:59,1.339,3.0,2.95,0.025
12/05/2022,10:51:59,1.345,3.0,2.972,0.022
12/05/2022,10:52:59,1.008,2.0,2.989,0.017
12/05/2022,10:53:59,1.117,3.0,3.006,0.017
12/05/2022,10:54:59,1.488,3.0,3.026,0.02
12/05/2022,10:55:59,1.682,4.0,3.047,0.021
12/05/2022,10:56:59,1.769,4.0,3.073,0.026
12/05/2022,10:57:59,1.175,3.0,3.095,0.022
12/05/2022,10:59:07,1.574,4.0,3.122,0.027
12/05/2022,11:01:00,1.799,4.0,3.171,0.049
12/05/2022,11:01:59,1.829,4.0,3.2,0.029
12/05/2022,11:03:00,1.842,4.0,3.232,0.032
12/05/2022,11:03:59,1.848,4.0,3.262,0.03
12/05/2022,11:04:59,1.884,4.0,3.293,0.031
12/05/2022,11:05:59,1.887,4.0,3.324,0.031
12/05/2022,11:06:59,1.911,4.0,3.356,0.032
12/05/2022,11:08:12,1.884,4.0,3.393,0.037
12/05/2022,11:09:59,1.897,4.0,3.45,0.057
12/05/2022,11:10:59,1.885,4.0,3.48,0.03
12/05/2022,11:12:07,1.935,4.0,3.516,0.036